Regional Weather Roundup
Issued by NWS Goodland, KS

Home | Current Version | Previous Version | Text Only | Print | Product List | Glossary On
Versions: 1 2 3 4 5 6 7 8 9 10 11 12 13 14 15 16 17 18 19 20 21 22 23 24 25 26 27 28 29 30 31 32 33 34 35 36 37 38 39 40 41 42 43 44 45 46 47 48 49 50
000
ASUS43 KGLD 202208
RWRGLD

GOODLAND FORECAST AREA HOURLY WEATHER ROUNDUP
NATIONAL WEATHER SERVICE GOODLAND KS
400 PM MDT SAT SEP 20 2014

...OFFICIAL OBSERVATIONS...

CITY           SKY/WX    TMP DP  RH WIND       PRES   REMARKS
GOODLAND KS    SUNNY     83  50  31 NE9       30.13R
HILL CITY KS   SUNNY     89  54  30 NE10G21   30.02S
IMPERIAL NEB   SUNNY     86  47  25 N14       30.11S
MCCOOK NEB     SUNNY     87  48  25 N9G18     30.06S
AKRON CO       SUNNY     80  47  31 N5        30.20S
BURLINGTON CO  SUNNY     83  49  30 E13G22    30.15F
LIMON CO       SUNNY     79  48  33 NE8G16    30.23S
$$

...UNOFFICIAL OBSERVATIONS...

CITY           SKY/WX    TMP DP  RH WIND       PRES   REMARKS
COLBY KS       SUNNY     84  55  37 NE16G22   30.10R
GOVE KS          N/A     86  32  14 MISG        N/A
NORTON KS      SUNNY     88  41  19 NE10      30.03S
SHARON SPRINGS   N/A     85  56  37 NE13G22     N/A
WAKEENEY KS      N/A     88  56  33 MISG        N/A
TRENTON NEB      N/A     85  32  15 NE10        N/A
KIT CARSON CO    N/A     84  53  33 N5G18       N/A
YUMA CO          N/A     81  47  29 CALM        N/A
$$



USA.gov is the U.S. government's official web portal to all federal, state and local government web resources and services.